Location: Bucquoy
(50.1391°N, 2.7097°E)
Time: 22:31:28
(UTC+00:00)

STARLINK-2501 - Pass Details

Date: 06 May 2021
Orbit: 546 x 548 km, 53.1° (Epoch: 21 June)

Event Time Altitude Azimuth Distance (km) Brightness Sun altitude
Rises 02:34:12 0° 289° (WNW) 2,704 6.9 -13.7°
Reaches altitude 10° 02:36:50 10° 273° (W) 1,807 5.9 -13.4°
Enters shadow 02:37:09 11° 270° (W) 1,718 5.7 -13.4°
Exits shadow 02:41:52 15° 188° (S) 1,496 5.4 -12.9°
Drops below altitude 10° 02:43:00 10° 175° (S) 1,798 5.9 -12.8°
Sets 02:45:37 0° 159° (SSE) 2,685 6.9 -12.5°
